Powrót do katalogu

STARLINK-36460

AktywnyŁącznośćVLEO
NORAD 67432·PAYLOAD·🇺🇸 United States

Wystrzelony Jan 12, 2026 z Cape Canaveral Space Force Station

Loading…

Następne Przeloty (najbliższe 24 godziny)

TLE

ŚwieżeSource: CelesTrak SupGP

Epoka: Sep 15, 2026, 03:11 UTC

1 67432C 26005AE  26258.13312500 -.00036133  00000+0 -13089-2 0  2581
2 67432  42.9991 248.5248 0001338 266.9141 123.5781 15.27591462    15

Śledź STARLINK-36460 w czasie rzeczywistym z AllMySat

Download on the App Store